Lid_Strength_Index
13 13 13 13 13 13 13 13 12 11 10 9 9 8 7 7 6 4 3 3 1 1 1 1 1 1 1
14 13 14 13 13 13 13 13 12 12 10 10 9 9 9 8 7 6 5 4 5 2 2 1 1 1 1
15 13 13 12 13 13 13 13 12 12 11 11 10 10 10 9 8 7 6 5 4 3 2 2 2 2 1
14 13 13 11 12 13 13 12 13 12 12 11 11 11 11 10 10 9 8 6 5 3 3 4 4 3 1
13 13 13 12 12 11 12 12 12 12 12 12 12 12 11 11 10 9 8 6 5 3 3 5 5 4 2
12 12 12 12 11 11 11 12 13 10 13 13 12 13 12 11 10 10 9 7 6 5 3 5 5 5 4
10 10 10 10 10 11 11 11 12 10 12 14 12 13 11 11 11 10 9 8 7 5 4 5 6 5 6
8 8 8 7 8 9 9 10 10 10 10 14 12 13 12 11 10 9 8 8 7 6 4 5 6 5 6
5 5 5 5 5 7 9 10 12 11 10 12 12 13 12 10 9 9 8 7 7 6 4 5 6 6 6
6 5 5 4 4 5 6 9 11 12 10 12 11 12 13 10 11 10 9 9 9 8 5 5 7 5 5
7 6 6 6 5 5 5 6 9 10 8 9 10 11 13 14 13 12 11 11 10 9 5 5 5 5 6
7 7 7 7 5 5 5 5 5 7 7 8 10 11 12 14 15 12 12 12 11 11 9 4 6 6 6
8 7 6 5 5 5 5 5 5 6 7 8 9 10 11 13 14 14 14 13 12 11 11 5 4 6 7
7 6 6 6 6 5 6 6 7 7 6 7 8 10 11 12 13 14 14 15 13 12 11 10 5 4 6
7 7 7 7 7 6 6 6 8 7 7 7 7 9 10 11 13 13 14 14 13 13 12 12 11 4 6
8 7 7 7 8 6 6 7 8 8 8 6 8 9 10 10 10 12 13 14 14 13 12 13 12 7 5
8 7 8 7 7 7 6 7 8 7 6 6 7 9 12 14 11 9 11 12 13 14 13 13 12 11 5